Wind_Speed
94 92 91 90 89 89 87 86 85 83 82 81 80 79 79 77 75 73 70 69 68 67 66 64 62 62 61 59 58 56 54 52 49 46 44 42 40 39 37 36 36 35 36
85 84 83 82 82 82 83 83 83 82 82 82 82 82 82 81 79 77 74 72 71 70 69 68 66 64 63 61 60 58 57 55 53 50 47 44 42 41 39 38 37 36 36
73 72 72 72 72 73 74 75 77 78 78 80 82 83 84 84 83 81 79 76 74 73 72 71 70 68 67 64 62 59 58 58 57 54 50 47 45 43 41 39 38 38 37
68 67 67 66 66 66 67 69 71 72 74 77 79 82 84 86 86 86 83 81 78 76 75 74 74 73 71 68 65 62 59 58 58 56 53 50 47 46 44 42 39 38 39
68 67 66 64 63 63 62 64 66 69 71 74 77 80 83 86 89 89 88 85 82 80 78 77 76 76 75 72 69 66 62 58 57 56 53 51 49 48 46 44 42 40 40
66 64 63 61 60 60 60 60 63 66 68 71 73 77 82 86 90 92 91 90 87 84 81 79 78 78 78 76 73 71 68 63 59 56 54 52 51 49 48 46 44 42 41
60 58 57 56 55 55 56 58 59 63 66 69 70 73 78 84 90 92 94 93 91 88 85 82 79 78 78 77 76 74 72 71 65 59 56 54 52 51 50 48 45 43 42
54 52 50 49 49 49 51 53 56 58 63 67 69 70 73 79 86 91 95 96 95 92 89 86 83 80 78 77 76 76 76 74 71 65 60 57 54 52 52 50 47 46 44
50 48 47 46 44 44 45 47 50 54 58 63 68 70 71 73 79 86 92 96 97 96 94 90 87 85 81 77 76 75 76 76 75 70 64 60 57 54 53 51 47 46 44
51 50 48 46 44 42 41 42 44 48 53 58 64 69 70 71 73 78 86 93 98 99 97 94 91 88 85 80 76 73 73 76 77 76 70 65 61 58 55 52 50 48 44
54 53 51 49 46 44 42 41 40 42 47 53 59 66 70 70 71 72 77 87 94 99 100 98 94 91 89 84 79 73 70 71 75 77 74 69 64 62 58 55 52 49 45
55 55 53 51 48 46 43 41 40 40 42 47 54 61 67 70 70 69 70 76 87 95 100 100 98 94 92 89 84 77 71 68 70 75 76 73 68 64 61 58 54 50 47
57 56 55 52 50 47 44 42 40 39 39 43 49 56 62 68 70 69 67 68 77 88 96 101 100 98 95 91 87 83 76 69 68 71 76 75 70 65 63 60 56 53 49
61 59 57 54 51 47 44 42 40 38 37 39 44 51 57 65 69 68 67 65 68 78 90 97 101 99 98 95 91 86 81 73 69 68 72 74 72 68 64 61 58 56 53
65 63 60 55 51 47 45 42 39 37 36 36 39 46 52 59 66 68 67 65 64 69 81 91 98 100 99 96 93 89 84 76 71 68 69 71 71 70 66 63 60 57 56
69 64 58 51 46 44 43 40 37 35 33 33 35 41 47 54 62 67 67 64 62 64 71 83 93 99 99 98 94 91 87 81 75 71 69 69 70 70 68 65 62 59 56
68 60 50 41 36 35 36 36 34 32 31 30 32 36 43 49 57 64 65 63 61 59 63 73 84 93 96 96 94 91 88 84 79 74 71 69 70 70 69 68 65 63 59
63 52 41 30 21 19 24 28 30 28 27 27 28 32 38 44 51 59 62 62 60 57 58 65 76 85 91 91 89 89 90 85 82 77 72 70 70 70 69 68 67 65 62
58 45 33 22 13 4 8 18 23 24 23 24 25 29 34 39 46 53 58 59 58 56 55 59 70 79 85 87 86 85 87 87 83 80 75 71 70 70 69 68 68 67 65
54 40 29 20 13 7 1 8 14 18 20 21 23 26 31 36 41 48 53 55 54 53 52 54 64 75 80 81 81 81 83 86 85 83 79 75 71 69 69 67 66 65 64
51 37 26 20 15 11 5 2 8 13 16 18 21 25 29 33 38 44 48 50 49 49 50 50 59 73 80 80 77 76 78 82 84 83 81 78 73 69 67 66 64 64 64
51 37 24 17 13 10 5 3 4 8 13 16 20 24 28 31 35 40 43 44 44 44 45 46 54 70 82 85 80 77 78 80 82 81 80 79 76 71 68 66 64 63 63
53 39 27 17 10 8 6 4 4 5 10 14 19 24 28 31 33 36 39 39 39 39 40 42 48 65 83 90 84 78 79 80 80 79 78 76 75 72 70 67 65 64 63
58 44 33 22 14 9 7 7 6 4 7 13 19 23 28 31 32 34 35 35 34 34 35 37 42 58 78 92 91 81 78 79 79 78 77 74 73 72 69 66 65 64 63
63 51 39 29 21 15 12 9 7 4 5 11 18 23 28 31 32 32 33 32 31 29 30 32 36 48 68 85 93 89 79 78 80 79 76 73 72 70 69 66 64 63 62
67 60 47 37 28 21 16 12 8 4 4 9 16 23 28 31 32 32 31 30 28 27 26 28 32 40 55 72 87 90 84 78 78 77 74 71 70 69 68 66 63 62 61
Wind_Direction
285 283 280 277 274 270 267 263 259 255 251 247 244 241 240 239 239 239 238 237 235 233 232 231 231 232 233 232 230 229 229 229 228 228 228 228 228 228 227 228 229 229 228
289 285 282 278 275 271 267 264 259 255 251 247 243 240 238 237 236 236 235 235 234 233 231 230 230 231 231 231 230 230 230 229 228 227 227 227 228 227 227 228 228 229 229
291 287 283 279 275 270 265 261 257 253 249 246 242 239 237 235 234 233 233 232 232 232 230 229 229 229 230 230 229 229 230 230 228 224 224 225 226 227 227 228 229 229 229
295 291 287 282 277 271 265 260 255 251 247 243 240 238 236 233 231 231 230 230 230 229 229 228 228 228 229 229 228 228 230 231 229 223 222 223 225 226 227 228 229 230 229
298 294 290 285 280 274 268 261 254 249 245 241 238 235 233 231 230 229 228 228 227 227 227 227 227 227 228 228 227 226 227 227 226 222 220 221 223 225 226 227 228 230 229
300 297 292 287 282 276 270 263 255 249 244 240 236 233 231 229 228 227 226 226 225 225 225 225 226 227 228 228 228 227 226 225 225 222 219 220 221 223 226 226 227 229 229
304 301 297 291 285 279 272 265 258 250 244 239 235 232 230 228 226 225 224 224 223 223 223 223 223 225 227 228 228 227 226 226 225 223 222 221 221 223 226 226 226 228 229
310 307 302 297 290 283 275 268 261 253 245 240 235 231 229 228 227 224 223 222 222 221 221 221 220 222 225 227 228 227 226 225 225 225 223 223 222 224 226 226 226 228 229
314 311 307 302 295 288 279 272 264 256 248 241 236 231 228 227 227 225 223 221 220 219 219 219 219 220 222 224 225 226 226 225 225 224 223 223 224 224 226 227 228 229 229
315 312 309 305 299 292 284 277 269 260 250 242 237 232 228 226 225 226 225 222 220 218 218 218 218 219 220 222 223 225 225 225 224 224 223 222 223 224 225 227 229 229 230
314 311 308 304 298 292 286 280 272 264 254 244 238 232 228 225 223 224 225 224 220 218 217 216 216 217 218 219 221 221 223 223 224 224 223 221 221 223 224 226 228 229 231
313 309 305 301 296 291 285 280 274 267 257 247 239 233 228 225 223 222 223 225 222 219 216 215 215 215 216 218 219 220 221 221 223 224 224 222 221 221 222 224 226 227 230
312 307 303 298 294 288 283 277 272 267 260 250 240 233 228 224 222 221 220 222 223 220 217 215 214 215 215 216 217 219 221 221 221 223 223 222 221 220 221 222 223 225 228
315 309 303 296 290 284 279 273 269 265 260 252 241 233 228 224 221 220 218 219 222 222 218 215 214 214 215 216 217 217 219 220 220 221 222 222 221 221 220 221 222 224 226
318 312 304 296 287 279 274 270 265 262 258 251 242 233 227 223 220 218 218 217 219 221 220 216 215 214 214 215 216 217 217 217 218 219 221 222 221 221 221 221 221 222 225
322 315 308 298 286 275 269 265 261 257 254 249 241 232 226 222 219 217 217 217 217 218 220 218 216 214 214 214 215 216 216 217 218 219 220 222 222 221 221 221 221 222 223
328 323 317 307 290 272 262 258 255 252 248 245 239 231 225 221 217 215 215 216 216 216 217 218 217 215 214 214 215 216 216 216 217 219 220 221 222 222 221 221 221 222 223
337 335 332 326 311 278 256 250 248 246 243 240 236 229 223 219 216 214 213 215 215 215 215 216 216 215 213 212 214 216 217 216 217 218 219 220 221 222 222 221 221 221 223
347 349 352 357 0 333 243 239 240 239 236 233 230 224 219 216 213 211 211 212 214 214 215 215 215 214 212 212 211 213 216 217 217 217 217 218 220 222 222 222 222 221 223
357 2 13 26 41 60 150 230 233 231 229 225 223 218 214 211 209 208 209 210 212 214 215 216 214 212 208 210 209 210 213 215 217 217 217 217 219 219 220 220 221 221 223
4 11 26 45 63 71 65 247 230 225 221 218 216 212 208 206 205 205 206 208 211 214 215 216 213 210 206 204 205 206 209 211 214 217 217 217 218 218 218 219 220 221 222
10 15 27 47 64 69 51 352 257 225 216 213 209 206 202 200 200 201 203 206 209 213 216 217 214 209 204 201 198 200 205 209 211 214 216 217 218 218 218 218 218 220 222
13 17 24 34 45 46 22 338 291 236 218 211 206 201 198 195 195 197 199 203 207 212 216 217 215 209 205 201 196 195 199 204 207 209 212 215 216 217 218 219 218 219 221
17 18 20 23 26 22 2 346 327 281 229 212 204 199 195 192 192 194 196 199 204 210 215 216 215 210 206 204 201 196 195 199 203 205 208 210 213 215 216 217 218 219 221
20 20 20 19 18 13 4 359 348 318 240 212 203 198 193 191 191 192 194 197 201 207 212 215 214 209 207 206 206 203 199 199 202 204 206 208 210 212 214 215 216 217 219
22 23 23 21 18 15 11 8 2 337 246 211 203 198 193 191 191 191 192 195 198 203 207 211 212 208 206 207 207 207 204 202 202 204 205 207 209 211 212 213 214 216 218
Height
5633 5628 5623 5621 5620 5621 5623 5627 5631 5637 5643 5650 5658 5666 5674 5682 5690 5699 5708 5716 5724 5732 5739 5746 5753 5759 5765 5771 5777 5783 5789 5794 5800 5806 5811 5816 5820 5825 5829 5834 5838 5842 5846
5603 5598 5593 5590 5589 5590 5592 5595 5600 5607 5614 5622 5631 5640 5650 5659 5669 5679 5689 5698 5706 5715 5723 5732 5739 5746 5753 5758 5765 5771 5777 5783 5789 5795 5802 5807 5812 5817 5822 5827 5831 5835 5839
5578 5572 5567 5564 5562 5562 5563 5565 5570 5576 5584 5593 5603 5612 5624 5635 5646 5657 5667 5678 5687 5697 5706 5715 5723 5732 5739 5746 5752 5759 5765 5771 5778 5784 5791 5797 5803 5809 5814 5819 5824 5828 5832
5555 5549 5544 5541 5538 5536 5537 5539 5542 5548 5555 5564 5574 5585 5597 5610 5622 5633 5644 5656 5667 5677 5688 5697 5707 5716 5724 5732 5740 5747 5754 5760 5766 5772 5779 5786 5793 5800 5806 5811 5816 5821 5825
5534 5528 5522 5518 5515 5513 5512 5514 5517 5522 5529 5536 5546 5558 5570 5583 5595 5608 5621 5633 5645 5657 5668 5679 5689 5698 5708 5717 5726 5734 5742 5749 5756 5761 5767 5775 5783 5790 5797 5803 5808 5813 5818
5515 5507 5501 5497 5493 5491 5490 5490 5493 5498 5504 5511 5521 5532 5543 5555 5568 5582 5596 5610 5623 5636 5649 5660 5671 5681 5691 5701 5711 5720 5729 5738 5745 5751 5757 5764 5772 5779 5787 5793 5800 5805 5810
5497 5489 5482 5477 5473 5470 5469 5469 5470 5475 5481 5488 5497 5508 5519 5529 5541 5556 5571 5586 5600 5615 5628 5641 5653 5664 5674 5685 5695 5705 5715 5725 5734 5741 5748 5754 5761 5768 5776 5784 5790 5796 5802
5482 5474 5467 5461 5456 5452 5450 5449 5450 5453 5459 5465 5474 5485 5497 5507 5517 5531 5545 5560 5576 5592 5607 5621 5635 5647 5657 5667 5679 5690 5700 5710 5720 5729 5737 5744 5751 5758 5766 5773 5780 5787 5793
5470 5462 5454 5448 5442 5437 5434 5432 5431 5433 5439 5444 5452 5463 5474 5485 5496 5508 5520 5536 5551 5568 5585 5600 5615 5629 5641 5652 5662 5673 5684 5695 5706 5716 5725 5733 5741 5748 5756 5763 5770 5777 5784
5458 5450 5442 5435 5429 5424 5420 5417 5416 5416 5419 5425 5431 5441 5453 5464 5475 5487 5498 5512 5527 5545 5563 5580 5596 5611 5624 5636 5647 5658 5669 5680 5691 5702 5712 5721 5730 5738 5746 5753 5761 5768 5774
5445 5436 5429 5421 5415 5410 5406 5403 5401 5400 5402 5406 5413 5421 5432 5444 5456 5467 5479 5491 5506 5523 5541 5560 5577 5592 5607 5620 5632 5644 5654 5665 5676 5687 5698 5708 5718 5727 5736 5744 5751 5759 5766
5433 5422 5413 5406 5399 5395 5391 5388 5386 5386 5386 5389 5395 5403 5413 5426 5438 5450 5462 5471 5485 5502 5520 5539 5557 5573 5588 5602 5616 5628 5639 5651 5662 5673 5684 5694 5705 5715 5724 5733 5741 5750 5757
5418 5407 5396 5388 5382 5377 5374 5372 5371 5371 5372 5374 5379 5386 5395 5407 5420 5433 5446 5456 5467 5482 5499 5518 5536 5552 5568 5584 5598 5612 5625 5636 5648 5659 5670 5681 5692 5703 5713 5722 5730 5739 5747
5399 5386 5376 5368 5362 5358 5356 5355 5356 5356 5357 5359 5364 5370 5379 5390 5402 5416 5430 5441 5451 5463 5480 5498 5515 5533 5548 5565 5581 5596 5610 5622 5634 5646 5656 5667 5679 5691 5701 5711 5720 5729 5737
5376 5363 5351 5343 5338 5336 5336 5337 5339 5341 5343 5346 5350 5356 5365 5375 5387 5400 5413 5427 5438 5449 5463 5479 5495 5511 5529 5547 5564 5580 5595 5608 5621 5633 5644 5655 5667 5679 5690 5700 5709 5718 5727
5354 5337 5324 5316 5312 5312 5315 5319 5323 5327 5330 5334 5338 5344 5351 5361 5372 5385 5399 5412 5425 5436 5448 5463 5477 5494 5512 5531 5548 5565 5580 5594 5607 5620 5631 5643 5654 5667 5679 5690 5699 5708 5716
5333 5314 5301 5293 5289 5291 5296 5302 5308 5313 5318 5322 5327 5332 5340 5349 5359 5372 5386 5399 5412 5424 5436 5447 5461 5478 5497 5516 5533 5550 5565 5580 5594 5607 5620 5631 5643 5654 5666 5678 5689 5698 5707
5317 5299 5286 5278 5275 5276 5282 5289 5295 5302 5308 5313 5317 5323 5330 5338 5348 5361 5374 5387 5400 5413 5424 5434 5447 5464 5483 5501 5519 5535 5551 5566 5580 5594 5607 5619 5631 5642 5654 5666 5677 5687 5697
5308 5291 5280 5274 5271 5272 5275 5280 5287 5294 5300 5305 5310 5315 5322 5330 5340 5351 5364 5377 5390 5402 5414 5424 5436 5451 5470 5487 5505 5521 5537 5553 5567 5581 5594 5606 5619 5630 5642 5654 5665 5676 5686
5305 5291 5281 5276 5274 5274 5276 5278 5283 5289 5294 5299 5304 5309 5316 5323 5332 5343 5355 5368 5381 5393 5404 5414 5425 5439 5457 5474 5491 5508 5523 5538 5553 5567 5581 5594 5606 5618 5631 5643 5655 5665 5675
5307 5294 5286 5282 5280 5279 5279 5280 5282 5286 5291 5296 5300 5305 5311 5318 5327 5337 5349 5361 5372 5383 5394 5403 5412 5425 5443 5461 5479 5494 5508 5524 5539 5553 5567 5582 5596 5608 5619 5631 5642 5653 5664
5312 5301 5293 5288 5285 5283 5283 5283 5283 5286 5290 5293 5297 5302 5308 5315 5323 5333 5344 5355 5365 5375 5384 5392 5401 5412 5428 5446 5464 5478 5494 5510 5527 5542 5555 5569 5582 5595 5607 5620 5631 5642 5652
5319 5307 5299 5294 5291 5288 5287 5285 5286 5287 5290 5292 5296 5300 5306 5313 5321 5330 5340 5350 5359 5368 5376 5383 5390 5399 5414 5432 5450 5467 5482 5497 5513 5528 5542 5556 5569 5583 5595 5607 5618 5630 5640
5327 5314 5306 5300 5296 5292 5290 5289 5288 5289 5290 5292 5295 5299 5305 5312 5320 5328 5337 5346 5354 5362 5369 5376 5382 5391 5402 5418 5436 5452 5468 5484 5500 5514 5529 5543 5556 5570 5583 5595 5606 5618 5628
5336 5322 5313 5306 5301 5297 5293 5291 5290 5290 5291 5292 5295 5299 5304 5311 5318 5327 5335 5343 5351 5358 5364 5370 5376 5382 5392 5406 5422 5440 5455 5472 5488 5503 5517 5532 5545 5558 5571 5583 5595 5606 5617
5346 5332 5320 5312 5305 5300 5296 5294 5292 5291 5291 5292 5295 5299 5304 5310 5317 5325 5333 5341 5348 5354 5360 5366 5371 5377 5385 5396 5411 5427 5444 5461 5477 5492 5507 5521 5534 5547 5559 5571 5583 5595 5605